EW2082 Weather Reports


time (UTC)temp
C
wind
direction
speed
KPH
gust
KPH
rain 1hr
cm
rain 24hr
cm
rain mn
cm
humidity
%
barometer
mb
20260507033006 16 219 0.0 3.2 0.00 0.00 0.00 85 1015.3
20260507032004 16 267 0.0 6.4 0.00 0.00 0.00 84 1015.3
20260507030005 17 18 0.0 1.6 0.00 0.00 0.00 81 1015.0
20260507025004 17 257 0.0 3.2 0.00 0.00 0.00 78 1015.1
20260507024005 17 16 0.0 4.8 0.00 0.00 0.00 75 1014.8
20260507023004 17 329 0.0 4.8 0.00 0.00 0.00 72 1014.9
20260507021004 18 78 0.0 3.2 0.00 0.00 0.00 74 1014.8
20260507020005 18 15 0.0 4.8 0.00 0.00 0.00 71 1014.6
20260507015004 20 353 0.0 1.6 0.00 0.00 0.00 68 1014.6
20260507014005 20 286 0.0 3.2 0.00 0.00 0.00 68 1014.6
20260507013005 20 41 0.0 3.2 0.00 0.00 0.00 67 1014.5
20260507012004 20 32 0.0 8.0 0.00 0.00 0.00 64 1014.4
20260507011004 20 335 0.0 8.0 0.00 0.00 0.00 65 1014.4
20260507010006 20 32 0.0 9.7 0.00 0.00 0.00 65 1014.4
20260507005005 20 17 3.2 6.4 0.00 0.00 0.00 64 1014.3
20260507004005 20 30 0.0 6.4 0.00 0.00 0.00 65 1014.4
20260507003005 21 9 1.6 8.0 0.00 0.00 0.00 65 1014.4
20260507002004 21 291 0.0 9.7 0.00 0.00 0.00 65 1014.3
20260507001004 21 323 0.0 9.7 0.00 0.00 0.00 64 1014.3
20260507000004 21 280 6.4 12.9 0.00 0.00 0.00 64 1014.4
20260506235004 21 292 6.4 14.5 0.00 0.00 0.00 66 1014.4
20260506234004 22 278 8.0 12.9 0.00 0.00 0.00 61 1014.4
20260506233004 22 13 1.6 9.7 0.00 0.00 0.00 61 1014.4
20260506232004 22 46 1.6 8.0 0.00 0.00 0.00 60 1014.4
20260506231004 22 32 0.0 6.4 0.00 0.00 0.00 60 1014.5
20260506230004 22 79 0.0 9.7 0.00 0.00 0.00 60 1014.5
20260506224004 23 11 0.0 8.0 0.00 0.00 0.00 57 1014.8
20260506223004 23 34 0.0 6.4 0.00 0.00 0.00 57 1014.8
20260506221004 24 262 1.6 6.4 0.00 0.00 0.00 54 1015.0
20260506220005 24 80 0.0 8.0 0.00 0.00 0.00 55 1015.1
20260506215004 24 48 0.0 8.0 0.00 0.00 0.00 56 1015.3
20260506214004 24 25 0.0 8.0 0.00 0.00 0.00 54 1015.4
20260506213003 24 43 0.0 4.8 0.00 0.00 0.00 52 1015.5
20260506212004 25 66 1.6 3.2 0.00 0.00 0.00 51 1015.6
20260506211004 24 4 0.0 3.2 0.00 0.00 0.00 47 1015.6
20260506210004 24 174 4.8 6.4 0.00 0.00 0.00 45 1015.8
20260506205004 25 182 1.6 8.0 0.00 0.00 0.00 45 1015.7
20260506204004 24 186 3.2 9.7 0.00 0.00 0.00 47 1015.9
20260506203004 24 127 3.2 6.4 0.00 0.00 0.00 46 1016.0
20260506202003 25 210 4.8 8.0 0.00 0.00 0.00 48 1016.1
20260506201004 24 215 0.0 6.4 0.00 0.00 0.00 49 1016.2
20260506195004 24 212 0.0 6.4 0.00 0.00 0.00 49 1016.3
20260506193004 23 158 3.2 8.0 0.00 0.00 0.00 52 1016.4
20260506192004 23 230 0.0 11.3 0.00 0.00 0.00 54 1016.5
20260506191004 24 191 0.0 6.4 0.00 0.00 0.00 53 1016.7
20260506190006 24 89 0.0 4.8 0.00 0.00 0.00 53 1016.8
20260506185003 24 181 0.0 8.0 0.00 0.00 0.00 56 1016.8
20260506184003 23 167 0.0 3.2 0.00 0.00 0.00 54 1017.1
20260506183004 23 66 0.0 8.0 0.00 0.00 0.00 54 1017.0
20260506182004 22 213 0.0 4.8 0.00 0.00 0.00 56 1017.1
20260506181005 22 180 0.0 3.2 0.00 0.00 0.00 55 1017.1
20260506180005 22 155 0.0 3.2 0.00 0.00 0.00 54 1017.2
20260506174004 22 156 1.6 4.8 0.00 0.00 0.00 55 1017.1
20260506173003 22 211 0.0 4.8 0.00 0.00 0.00 57 1017.3
20260506171004 21 107 0.0 6.4 0.00 0.00 0.00 59 1017.2
20260506170003 21 82 0.0 4.8 0.00 0.00 0.00 60 1017.1
20260506164003 21 138 0.0 3.2 0.00 0.00 0.00 60 1017.2
20260506163004 21 184 0.0 4.8 0.00 0.00 0.00 63 1017.1
20260506161004 20 200 0.0 3.2 0.00 0.00 0.00 62 1017.2
20260506160005 20 156 0.0 3.2 0.00 0.00 0.00 65 1017.1
20260506155004 20 71 0.0 1.6 0.00 0.00 0.00 66 1016.9
20260506154005 20 54 0.0 4.8 0.00 0.00 0.00 69 1017.0
20260506152004 20 63 0.0 1.6 0.00 0.00 0.00 69 1017.0
20260506150005 18 141 0.0 3.2 0.00 0.00 0.00 75 1017.1
20260506145005 17 176 0.0 0.0 0.00 0.00 0.00 79 1017.2
20260506143005 15 176 0.0 0.0 0.00 0.00 0.00 88 1016.8
20260506142004 13 176 0.0 0.0 0.00 0.00 0.00 92 1016.7
20260506141005 12 176 0.0 0.0 0.00 0.00 0.00 92 1016.7
20260506140005 12 176 0.0 0.0 0.00 0.00 0.00 92 1016.7
20260506135004 11 176 0.0 0.0 0.00 0.00 0.00 91 1016.7
20260506134004 11 176 0.0 0.0 0.00 0.00 0.00 91 1016.8
20260506133005 11 176 0.0 0.0 0.00 0.00 0.00 92 1016.8
20260506132005 11 176 0.0 0.0 0.00 0.00 0.00 91 1016.6
20260506131004 11 176 0.0 0.0 0.00 0.00 0.00 91 1016.4
20260506130006 11 176 0.0 0.0 0.00 0.00 0.00 91 1016.4
20260506124004 11 176 0.0 0.0 0.00 0.00 0.00 92 1016.1
20260506120005 11 176 0.0 0.0 0.00 0.00 0.00 91 1015.8
20260506115005 11 176 0.0 0.0 0.00 0.00 0.00 90 1015.7
20260506112005 11 176 0.0 0.0 0.00 0.00 0.00 90 1015.7
20260506111004 11 176 0.0 0.0 0.00 0.00 0.00 91 1015.7
20260506110005 11 176 0.0 0.0 0.00 0.00 0.00 90 1015.7
20260506105005 12 176 0.0 0.0 0.00 0.00 0.00 90 1015.8
20260506104004 12 176 0.0 0.0 0.00 0.00 0.00 90 1015.8
20260506103004 12 176 0.0 0.0 0.00 0.00 0.00 90 1015.8
20260506101004 12 176 0.0 0.0 0.00 0.00 0.00 89 1015.8
20260506100005 12 176 0.0 0.0 0.00 0.00 0.00 88 1015.9
20260506094004 12 176 0.0 0.0 0.00 0.00 0.00 88 1015.9
20260506093004 13 176 0.0 0.0 0.00 0.00 0.00 88 1015.9
20260506092005 13 176 0.0 0.0 0.00 0.00 0.00 87 1015.9
20260506091004 13 176 0.0 0.0 0.00 0.00 0.00 88 1016.1
20260506090006 13 176 0.0 0.0 0.00 0.00 0.00 88 1016.0
20260506085004 13 176 0.0 0.0 0.00 0.00 0.00 88 1015.9
20260506084004 13 176 0.0 0.0 0.00 0.00 0.00 88 1016.4
20260506083004 13 176 0.0 0.0 0.00 0.00 0.00 87 1016.1
20260506082004 13 176 0.0 0.0 0.00 0.00 0.00 87 1016.1
20260506073004 13 176 0.0 0.0 0.00 0.00 0.00 86 1016.3
20260506072004 12 176 0.0 0.0 0.00 0.00 0.00 86 1016.1
20260506071004 12 176 0.0 0.0 0.00 0.00 0.00 84 1016.0
20260506061004 13 176 0.0 0.0 0.00 0.00 0.00 81 1015.8
20260506051003 13 176 0.0 0.0 0.00 0.00 0.00 80 1015.3
20260506045004 14 176 0.0 0.0 0.00 0.00 0.00 79 1015.0
20260506044004 14 176 0.0 0.0 0.00 0.00 0.00 80 1014.9
20260506043004 14 176 0.0 0.0 0.00 0.00 0.00 79 1014.9
20260506042004 14 176 0.0 0.0 0.00 0.00 0.00 77 1014.9
20260506041004 15 176 0.0 0.0 0.00 0.00 0.00 77 1014.6
20260506040004 15 176 0.0 0.0 0.00 0.00 0.00 76 1014.5
20260506035004 15 176 0.0 0.0 0.00 0.00 0.00 76 1014.3
20260506034004 15 176 0.0 0.0 0.00 0.00 0.00 74 1014.1